Location: Mascot Post Office (historical)
(40.2645°N, 99.5462°W)
Time: 17:17:07
(UTC+00:00)

Cosmos 2341 Rocket - Pass Details

Date: 14 July 2020
Orbit: 968 x 1004 km, 82.9° (Epoch: 05 August)

Event Time Altitude Azimuth Distance (km) Brightness Sun altitude
Exits shadow 04:43:02 41° 168° (SSE) 1,370 4.3 -22.0°
Maximum altitude 04:45:17 74° 94° (E) 1,010 3.9 -22.2°
Drops below altitude 10° 04:51:29 10° 11° (N) 2,718 7.0 -22.8°
Sets 04:54:00 0° 10° (N) 3,669 7.8 -23.0°
